Home   Weather   Upernavik   Past weeks
Flag for Greenland

Past Weather in Upernavik, Greenland — Yesterday and Last 2 Weeks

Now
45 °F

Quite cool.


Feels Like: 38 °F
Forecast: 49 / 46 °F
Wind: 14 mph from East

Location: Edderfugle Oeer

Current Time: Jul 18, 2019 at 5:42:14 am

Latest Report: Jul 18, 2019 at 4:00 am


Visibility: N/A

Pressure: 29.82 "Hg

Humidity: 99%

Dew Point: 44 °F

Location of UpernavikLocation

Past Weather in Upernavik — Graph

°F

Upernavik Temperature Yesterday

Maximum temperature yesterday: 51 °F (at 11:00 am)
Minimum temperature yesterday: 44 °F (at 9:00 pm)
Average temperature yesterday: 47 °F

High & Low Weather Summary for the Past Weeks

 TemperatureHumidityPressure
High52 °F (Jul 16, 6:00 pm)100% (Jul 3, 4:00 am)30.26 "Hg (Jul 3, 4:00 am)
Low34 °F (Jul 4, 10:00 am)47% (Jul 16, 12:00 pm)29.66 "Hg (Jul 17, 8:00 am)
Average44 °F88%30.00 "Hg
* Reported Jul 3 4:00 am — Jul 18 4:00 am, Upernavik. Weather by CustomWeather, © 2019

Note: Actual official high and low records may vary slightly from our data, if they occured in-between our weather recording intervals... More about our weather records

Advertising

Upernavik Weather History for the Previous 24 Hours

Scroll right to see more
 ConditionsComfort  
Time TempWeatherWind HumidityBarometerVisibility
4:00 am
Thu, Jul 18
45 °FQuite cool.14 mph99%29.82 "HgN/A
3:00 am44 °FQuite cool.15 mph100%29.83 "HgN/A
2:00 am44 °FQuite cool.16 mph100%29.83 "HgN/A
1:00 am45 °FCool.14 mph100%29.84 "HgN/A
12:00 am45 °FQuite cool.17 mph100%29.85 "HgN/A
11:00 pm
Wed, Jul 17
45 °FQuite cool.18 mph100%29.85 "HgN/A
10:00 pm45 °FQuite cool.20 mph100%29.84 "HgN/A
9:00 pm44 °FQuite cool.18 mph100%29.84 "HgN/A
8:00 pm46 °FCool.21 mph99%29.83 "HgN/A
7:00 pm46 °FCool.21 mph95%29.83 "HgN/A
6:00 pm47 °FCool.24 mph90%29.80 "HgN/A
5:00 pm47 °FCool.22 mph94%29.80 "HgN/A
4:00 pm47 °FCool.21 mph92%29.79 "HgN/A
3:00 pm47 °FCool.24 mph89%29.75 "HgN/A
2:00 pm49 °FCool.23 mph75%29.72 "HgN/A
1:00 pm47 °FCool.13 mph87%29.72 "HgN/A
12:00 pm49 °FCool.7 mph86%29.70 "HgN/A
11:00 am51 °FCool.3 mph50%29.68 "HgN/A
10:00 am48 °FCool.5 mph69%29.67 "HgN/A
9:00 am47 °FCool.5 mph73%29.67 "HgN/A
8:00 am47 °FCool.6 mph77%29.66 "HgN/A
7:00 am47 °FCool.5 mph84%29.67 "HgN/A
6:00 am46 °FCool.7 mph95%29.67 "HgN/A
5:00 am49 °FCool.1 mph75%29.68 "HgN/A
Weather by CustomWeather, © 2019

See weather overview